Location: *
(50.3440°N, 18.6237°E)
Time: 12:14:12
(UTC+00:00)

H-2A R/B - Pass Details

Date: 30 November 2020
Orbit: 734 x 836 km, 98.2° (Epoch: 27 January)

Event Time Altitude Azimuth Distance (km) Brightness Sun altitude
Exits shadow 16:26:03 20° 102° (ESE) 1,774 3.4 -15.3°
Maximum altitude 16:28:25 28° 62° (ENE) 1,447 2.9 -15.7°
Drops below altitude 10° 16:32:42 10° 5° (N) 2,325 4.3 -16.3°
Sets 16:35:16 0° 354° (N) 3,239 5.2 -16.7°
